GFSSE_700_rhum_249.txt.gz
RH
6 7 9 10 9 9 10 12 13 13 13 13 11 9 5 3 3 3 3 3 3 3 3 3 3 3 3 3 4 4 4 4 4 4 5 5 5 5 5 6 7 7 8
6 7 10 10 10 11 11 12 13 14 13 14 13 12 10 7 4 3 3 3 3 3 3 3 3 3 3 4 4 4 4 4 6 6 7 7 7 7 8 9 10 10 10
6 7 10 10 11 12 11 12 12 12 14 14 15 14 11 9 7 5 4 3 3 3 3 4 4 4 5 5 5 5 4 4 4 4 7 7 7 8 9 10 11 11 11
7 7 10 11 12 12 13 12 13 11 12 10 9 11 10 8 7 6 5 4 4 4 4 5 5 6 6 6 6 6 5 4 4 4 5 5 6 6 7 8 9 10 12
6 7 10 11 12 13 14 13 14 12 11 12 10 6 5 5 4 4 4 4 4 4 5 6 6 7 7 7 7 6 6 5 5 4 3 4 4 5 6 6 6 7 10
6 7 10 11 12 14 15 14 14 14 11 8 8 9 6 4 5 5 4 4 5 5 6 6 7 8 8 8 8 7 6 6 6 5 4 4 4 4 5 5 6 8 9
5 7 9 11 12 14 15 15 14 15 13 8 8 9 9 7 6 6 5 5 5 6 6 7 7 8 8 8 8 8 6 8 7 6 6 5 5 5 5 5 6 7 8
6 6 9 11 12 14 15 16 15 15 15 10 9 9 9 9 8 7 6 6 6 6 6 7 7 8 8 9 9 8 7 8 8 8 8 8 7 7 7 8 8 8 9
7 7 8 10 12 14 15 16 17 16 16 12 10 10 10 11 10 9 8 6 6 6 6 6 7 7 8 9 9 8 8 8 9 10 10 11 11 11 11 11 10 11 11
8 7 7 9 12 13 15 16 17 16 16 14 10 10 12 12 12 10 8 7 6 6 6 6 6 6 8 9 9 9 9 8 8 10 10 9 10 10 11 12 12 13 14
8 8 8 8 10 12 14 15 16 17 16 16 12 11 12 13 14 12 9 8 7 7 6 6 6 6 6 8 9 10 9 9 9 9 9 9 9 10 11 12 13 14 15
22 8 8 8 9 11 13 14 15 17 17 17 14 12 12 13 14 14 10 7 7 7 7 6 6 5 5 7 9 10 10 10 10 10 10 10 9 10 11 11 12 13 14
34 12 8 8 9 9 11 12 13 15 17 17 16 13 13 13 14 15 13 8 7 7 6 7 6 5 5 6 8 11 10 10 10 10 10 10 10 11 11 11 12 12 12
39 23 10 8 9 9 9 10 12 13 15 17 17 15 14 14 15 16 15 9 7 7 7 7 6 6 5 5 6 10 10 11 11 11 11 11 11 11 11 12 12 12 13
45 32 16 10 9 10 10 10 10 12 14 15 17 17 15 15 15 16 17 12 7 7 8 7 7 6 5 5 5 8 10 10 11 11 11 12 12 12 12 12 13 13 13
50 43 33 20 11 10 11 10 10 11 12 14 16 18 16 17 16 17 17 16 8 8 8 8 7 6 5 4 4 5 8 9 10 11 11 11 12 12 13 13 13 13 14
62 56 43 34 23 14 12 12 11 11 11 12 15 17 18 18 18 18 18 18 12 8 8 8 8 7 6 5 4 4 5 7 8 9 10 10 11 11 12 13 13 13 14
92 83 65 49 38 22 16 14 12 12 12 11 13 15 18 20 20 19 19 19 17 9 8 9 9 8 6 5 5 5 5 6 7 9 10 11 12 13 13 13 13 13 14
88 86 76 55 50 37 20 16 15 15 14 13 13 14 16 19 21 21 21 20 19 13 8 9 10 8 6 5 5 5 6 7 9 10 11 12 12 12 12 12 13 14 14
78 85 84 68 53 46 33 22 18 16 15 14 14 14 15 16 20 22 23 22 21 18 9 9 10 9 7 6 6 6 7 9 10 9 8 8 9 12 14 15 15 16 16
63 70 74 71 62 50 39 40 34 31 27 19 16 16 16 16 17 19 22 24 23 21 14 8 10 10 8 6 7 8 9 8 7 9 11 14 17 18 20 21 21 21 22
58 56 65 66 64 60 53 37 46 47 45 39 24 20 19 19 18 18 19 24 25 23 19 10 10 12 10 7 8 9 9 8 9 12 15 16 18 20 21 22 24 25 26
58 61 73 67 66 69 68 43 36 45 47 46 42 23 19 21 22 20 19 20 26 25 22 14 10 12 12 9 9 9 10 9 12 13 15 16 18 21 23 25 27 28 29
81 56 56 64 66 69 71 61 51 39 36 37 41 29 26 24 25 24 23 21 22 26 25 19 11 12 13 10 10 11 10 11 14 14 15 16 18 23 26 28 30 31 32
71 84 66 67 63 67 68 67 62 58 55 50 46 39 28 24 26 29 29 27 25 26 28 23 14 13 15 13 11 12 11 13 14 15 16 17 19 26 29 31 32 32 33
57 67 71 72 70 67 73 66 61 61 62 60 56 49 41 30 28 32 33 37 34 30 30 27 18 15 16 16 13 13 13 14 14 15 18 18 23 30 31 34 32 33 34

GFSSE_700_rhum_255.txt.gz
RH
25 5 7 9 10 9 8 8 8 8 6 5 5 4 4 4 3 3 3 3 3 3 3 3 3 3 4 4 4 4 4 5 5 5 5 5 5 6 6 6 7 9 21
31 5 7 10 10 9 9 12 12 12 10 8 5 3 3 3 3 3 3 3 3 3 3 3 4 4 5 5 6 5 5 6 5 5 6 6 7 7 7 7 8 9 11
28 6 7 10 9 9 10 12 12 13 13 12 11 8 5 4 3 3 3 3 3 3 4 4 5 6 6 6 6 6 5 4 4 4 5 6 6 6 6 7 8 8 9
22 6 8 10 8 9 11 12 12 13 13 13 12 11 9 8 6 4 4 3 4 4 4 5 6 6 7 7 6 5 4 4 4 4 4 4 5 5 5 5 6 7 9
26 7 8 9 9 11 11 10 12 13 13 14 14 12 10 9 8 6 5 4 4 4 5 5 6 6 7 7 6 5 5 4 4 4 4 4 4 4 4 4 5 6 8
32 10 8 10 10 11 11 11 11 12 10 8 8 10 9 8 7 5 4 4 4 4 5 6 6 7 7 7 6 5 5 5 4 4 4 4 4 4 4 5 5 6 7
35 15 7 10 11 12 12 13 11 9 8 8 7 5 5 5 4 4 4 4 4 5 5 6 6 7 8 7 6 5 5 5 6 5 5 5 5 6 7 7 7 8 8
38 22 7 10 11 12 14 13 14 10 7 7 6 7 7 8 7 6 5 5 5 5 5 5 6 7 8 7 7 6 5 5 6 7 8 8 8 8 8 8 9 9 9
33 31 8 10 11 13 14 14 15 14 8 8 7 7 7 7 7 7 6 6 5 5 5 5 5 7 8 8 8 7 6 6 6 6 7 7 7 7 8 8 9 11 12
28 23 10 8 11 13 14 15 14 16 12 9 8 8 9 8 8 8 7 6 6 5 5 5 5 6 8 8 8 8 8 8 7 7 7 8 7 8 8 9 11 13 14
37 22 12 8 11 12 14 16 15 16 15 10 10 10 10 10 10 9 8 8 7 6 5 5 5 6 7 8 9 8 8 8 8 8 9 9 8 9 9 9 10 12 13
65 31 15 9 10 12 14 16 16 16 16 12 11 11 11 11 11 10 9 8 7 7 6 5 5 6 7 8 9 9 9 9 9 9 9 9 9 10 10 10 10 11 11
86 62 20 12 10 11 13 15 17 16 17 15 12 11 11 12 12 11 10 8 7 7 6 6 6 5 6 8 9 9 10 10 10 10 10 10 10 10 10 11 11 11 12
97 83 31 15 11 11 12 14 16 16 16 17 14 13 13 12 13 13 12 9 8 7 6 6 6 5 5 7 8 9 10 10 10 10 11 11 11 11 11 12 12 12 13
100 98 45 19 13 12 12 13 14 16 16 17 17 15 14 13 14 14 14 11 8 8 7 7 6 6 5 6 7 8 9 10 10 11 11 11 11 12 12 12 12 13 13
99 97 50 25 18 13 13 13 13 14 15 16 18 16 15 15 15 14 14 14 10 8 8 7 7 6 5 6 6 7 8 9 10 10 10 11 11 11 12 12 13 13 13
94 99 37 23 17 14 14 13 13 13 14 15 16 18 17 16 16 16 16 16 14 10 8 8 7 7 6 5 6 6 7 8 8 9 10 10 10 11 12 13 12 12 12
99 94 90 29 17 14 14 13 13 13 13 14 15 16 19 18 18 17 16 17 16 13 10 8 8 8 7 6 5 6 6 7 7 8 9 10 11 12 12 11 10 11 12
97 98 63 31 18 15 14 15 14 13 13 14 14 15 16 19 20 18 18 18 18 16 13 9 8 8 8 7 5 5 6 6 7 8 10 11 12 10 9 10 13 15 16
96 88 60 48 34 19 17 16 16 14 13 13 13 14 14 16 18 20 20 20 19 19 18 12 9 9 9 8 6 5 5 6 8 9 10 9 8 9 13 16 18 19 20
100 92 87 73 56 28 20 16 14 14 14 13 13 12 13 14 15 17 20 22 22 21 20 18 13 9 9 9 7 6 6 7 8 10 9 8 10 15 17 18 19 20 21
94 80 88 80 75 56 37 26 22 18 17 17 17 17 16 15 14 15 16 19 22 23 23 22 18 14 10 10 9 7 6 7 8 10 9 10 14 16 17 18 20 22 23
92 85 88 74 76 69 69 54 42 28 23 21 20 18 18 17 16 16 16 16 17 20 22 24 23 21 14 11 11 9 8 7 9 9 8 12 15 16 17 18 19 23 24
82 94 93 75 65 63 64 76 65 45 35 30 25 22 23 25 24 21 18 18 18 18 18 19 25 24 22 15 12 11 9 9 11 10 9 12 15 16 16 17 20 22 24
60 69 88 88 76 72 73 77 78 78 56 46 40 38 40 41 40 34 27 22 21 21 21 20 22 24 25 20 15 12 11 10 10 10 11 12 14 15 16 18 20 25 27
33 47 63 84 82 80 79 74 78 94 90 78 63 54 56 55 55 47 36 30 28 27 26 25 24 25 26 24 19 14 14 13 13 13 13 16 16 16 16 18 21 25 30

GFSSE_700_rhum_261.txt.gz
RH
31 20 14 6 8 10 11 9 7 6 6 5 5 5 5 4 4 4 4 3 3 3 3 3 3 4 5 5 5 5 5 4 4 4 4 4 5 5 5 4 5 9 11
32 28 13 6 9 11 10 8 8 8 7 6 5 5 4 4 4 3 3 3 3 3 3 3 4 6 6 6 5 4 4 4 4 4 4 5 5 4 4 4 4 6 8
31 28 13 7 8 11 9 8 9 10 8 6 4 4 3 3 3 3 3 3 3 3 4 5 6 6 6 5 4 3 3 3 3 4 4 4 4 4 4 4 4 5 6
34 31 13 7 9 10 9 10 11 12 12 10 8 4 3 3 3 3 3 3 3 4 5 6 6 6 6 5 4 3 2 2 2 3 3 4 4 4 4 4 4 5 5
35 30 15 8 10 10 9 10 11 12 13 13 12 9 6 4 3 3 3 4 4 4 6 6 6 6 6 5 4 3 2 2 2 2 3 3 3 4 4 5 5 5 6
34 26 16 8 10 10 10 11 11 12 13 13 13 12 10 8 6 5 4 4 4 5 6 6 6 6 6 5 4 4 3 3 3 3 3 3 4 6 6 7 7 7 7
37 27 19 9 10 9 11 11 12 13 13 14 14 12 11 9 8 6 5 4 5 6 6 7 6 6 6 5 5 4 5 5 5 5 6 7 7 7 7 7 7 8 8
43 32 22 10 11 10 11 11 11 12 11 9 9 11 10 8 7 5 4 5 5 6 6 6 6 7 6 6 5 5 5 5 5 6 6 6 6 6 7 7 9 10 10
45 38 24 13 10 11 11 12 12 12 12 10 7 5 5 5 5 5 5 5 6 6 6 6 6 7 7 6 6 6 5 5 5 5 6 6 6 7 7 8 10 11 11
44 45 29 18 10 11 12 12 13 12 10 8 8 6 6 7 7 6 6 6 6 6 5 5 6 6 7 7 7 7 6 6 6 7 7 6 7 7 7 8 9 10 10
50 50 38 25 12 10 12 12 13 14 11 8 8 8 7 7 7 7 6 6 6 6 6 5 5 6 6 7 7 7 7 7 7 7 7 7 7 7 8 8 8 8 9
56 59 48 33 19 11 12 13 13 15 14 10 9 8 8 8 8 8 7 7 6 6 6 5 5 6 6 7 7 7 7 7 7 7 7 7 8 8 9 9 9 9 10
58 76 62 44 30 12 11 13 14 13 16 12 10 10 10 10 10 9 8 8 7 7 6 6 5 6 6 7 7 7 7 7 8 8 9 8 9 10 10 10 11 11 12
47 69 85 92 41 21 14 14 14 13 16 15 11 11 12 12 11 10 9 8 8 7 6 6 6 6 6 7 7 8 8 7 8 9 10 10 10 10 11 11 11 11 12
36 77 97 92 76 42 23 17 15 14 14 17 13 12 13 13 13 12 10 8 8 7 7 6 6 5 5 6 7 8 8 8 9 9 10 10 10 11 12 12 11 12 12
46 49 94 95 97 100 44 27 17 15 14 17 15 13 14 14 14 14 12 9 8 8 8 7 6 6 5 5 6 6 8 8 8 8 10 10 10 10 11 12 12 12 11
52 46 77 99 100 100 94 44 24 16 14 16 16 14 14 15 15 15 15 12 10 9 8 8 7 6 6 5 5 6 7 7 8 8 8 9 10 10 11 11 11 11 10
74 51 45 51 96 100 98 59 34 18 16 14 17 15 14 15 16 16 16 15 13 11 9 9 8 7 7 6 6 6 6 7 7 8 8 8 10 11 10 11 11 9 11
88 83 47 67 76 98 97 68 37 21 16 15 16 17 16 16 16 17 17 17 16 14 11 10 9 8 8 7 6 6 6 6 6 7 8 8 10 11 12 11 10 10 15
96 80 51 28 60 77 98 96 40 26 17 16 15 16 17 17 17 18 18 18 18 17 16 13 11 10 9 8 8 7 6 6 6 7 8 9 10 11 11 9 10 15 17
92 97 89 56 38 79 98 86 48 28 18 15 15 15 17 18 18 18 19 20 20 19 18 17 14 13 10 10 9 9 8 7 6 7 7 8 9 11 10 9 13 17 18
96 85 97 95 62 77 98 85 49 30 20 16 15 16 16 16 18 19 20 21 21 21 21 20 19 17 15 12 11 10 10 9 7 7 8 9 10 11 9 11 16 18 18
81 78 93 100 67 85 83 89 71 38 27 21 17 16 15 15 16 18 20 21 23 23 23 23 22 21 19 17 14 14 12 11 10 9 9 10 11 12 10 12 17 18 19
84 86 100 99 83 88 97 94 44 34 23 18 16 16 16 16 16 16 16 18 22 23 24 24 24 24 22 20 18 16 15 14 13 12 11 11 12 13 12 12 17 18 19
88 98 98 95 98 92 90 65 60 43 31 27 23 20 19 18 18 17 17 17 17 17 18 21 23 23 24 24 22 19 18 17 16 14 14 15 16 17 15 15 19 20 20
91 99 100 100 96 88 76 64 57 48 34 32 29 25 23 22 21 21 20 19 19 19 19 20 22 21 24 24 24 23 21 20 19 19 17 17 16 18 18 17 20 21 23

GFSSE_700_rhum_264.txt.gz
RH
33 28 19 7 8 10 11 10 7 6 5 4 4 4 4 4 4 3 3 3 3 3 3 3 4 5 5 5 5 5 4 4 4 4 4 5 5 5 4 4 6 7 10
32 29 20 8 8 10 11 8 8 7 6 5 5 5 5 5 4 4 4 3 3 3 3 4 5 6 6 5 4 4 4 4 4 4 4 5 4 4 4 4 4 5 8
34 32 21 8 8 11 10 8 8 8 7 5 5 4 4 4 4 4 4 3 3 3 4 5 6 6 5 4 4 3 3 3 4 4 4 4 4 4 4 4 4 5 6
34 32 23 9 9 11 9 9 10 10 9 6 4 3 3 3 3 3 3 3 3 4 4 6 6 6 5 4 3 3 2 3 3 4 4 4 4 4 3 4 5 5 6
35 34 23 10 8 11 9 10 11 12 12 11 8 5 4 3 3 3 3 3 4 4 6 7 7 6 5 4 3 2 2 2 3 3 3 3 3 3 5 5 6 6 6
37 34 26 11 8 11 9 11 12 12 13 13 12 10 7 5 4 3 3 4 4 5 6 7 7 6 5 4 4 3 3 2 2 2 2 3 5 6 6 6 6 7 7
39 36 27 14 9 11 10 11 12 12 14 14 13 12 10 8 7 5 4 4 5 6 6 7 7 6 6 5 5 4 4 4 4 4 6 6 6 5 5 6 7 7 7
40 41 32 19 10 11 10 11 12 13 14 14 14 13 11 9 8 6 5 5 5 6 7 7 7 7 6 5 5 5 6 6 6 6 6 5 5 6 6 7 8 8 8
30 44 42 27 12 11 10 12 11 12 13 10 9 10 9 8 7 5 4 5 6 6 7 7 8 7 6 6 6 5 5 5 5 5 5 6 6 7 7 7 8 9 9
28 39 46 34 19 10 10 11 12 12 13 11 8 5 5 5 5 5 5 6 6 6 6 7 8 7 7 7 6 6 6 6 6 6 6 6 7 7 7 7 7 8 9
26 41 47 44 29 12 11 11 12 13 13 11 8 7 5 6 6 6 6 6 7 6 6 7 8 8 7 7 7 7 7 6 6 7 7 7 7 8 8 8 8 8 8
8 36 77 54 40 20 13 12 12 14 13 10 9 8 7 7 7 7 7 7 7 7 7 7 7 8 8 8 8 7 7 7 8 7 7 7 8 9 9 9 9 10 10
12 39 76 97 54 33 15 14 12 12 15 12 10 9 8 8 8 8 8 7 7 7 7 6 6 7 8 8 8 8 8 8 8 8 8 8 9 10 10 10 11 11 12
15 44 73 83 75 49 24 17 15 13 15 14 11 10 9 9 9 9 8 8 7 7 6 6 6 7 8 8 8 9 8 8 9 9 9 10 10 10 11 11 11 12 12
23 18 59 78 88 86 45 21 22 16 14 16 12 11 11 11 11 9 9 8 8 7 7 6 6 7 7 8 8 8 8 8 8 9 9 10 10 10 11 10 12 12 12
27 27 28 66 85 91 89 89 29 20 15 16 14 12 12 13 13 11 9 9 8 8 7 7 7 6 6 7 8 8 8 8 8 9 9 9 9 9 11 11 12 12 12
24 38 33 55 97 96 99 89 44 32 18 15 15 13 13 14 14 13 10 9 8 8 8 7 7 6 6 7 7 8 8 8 8 9 9 9 8 8 9 12 12 11 10
24 25 36 35 53 98 98 99 75 36 20 18 16 14 14 14 16 15 13 10 9 9 9 8 8 7 7 6 6 7 7 7 7 8 8 9 8 8 9 11 11 11 10
44 56 35 40 31 43 95 84 97 40 24 17 16 15 14 15 16 16 16 13 11 10 9 9 8 8 8 7 7 6 6 7 7 8 8 9 10 9 10 11 11 9 9
64 65 64 61 58 60 54 100 88 47 29 17 16 16 14 14 16 17 17 16 14 12 10 10 10 9 8 8 8 7 7 7 7 8 8 9 9 10 10 12 11 10 12
57 56 67 90 81 62 43 94 80 47 32 17 16 16 16 15 16 17 18 18 17 16 13 11 11 10 10 9 9 8 8 7 7 7 8 8 9 10 11 12 10 11 16
41 64 81 81 77 41 58 98 95 68 32 22 16 15 16 17 16 16 17 18 19 18 17 16 14 12 11 11 10 10 9 9 8 8 8 9 10 10 12 12 12 13 17
23 33 74 82 97 74 49 81 73 92 42 22 16 16 16 16 17 17 18 19 19 20 19 18 17 15 14 13 13 13 12 12 11 10 10 9 10 10 11 13 12 14 19
18 61 81 85 99 98 96 48 85 87 51 30 20 17 16 16 17 18 19 19 20 21 21 20 20 18 18 16 16 15 15 15 13 14 13 12 12 12 12 14 14 15 19
43 78 83 95 100 97 99 78 89 97 86 44 24 18 18 17 16 17 18 20 21 22 23 23 23 23 21 20 19 18 18 17 17 16 15 14 14 14 14 16 16 17 20
61 79 95 91 97 100 94 67 96 100 75 59 37 26 22 19 18 17 17 18 19 21 22 23 24 24 24 23 22 21 20 20 20 21 19 17 16 15 15 16 17 18 20

GFSSE_700_rhum_267.txt.gz
RH
36 35 20 6 8 10 11 10 8 6 5 4 4 4 4 4 3 6 12 14 12 8 5 4 4 5 5 5 5 4 4 4 4 4 4 5 4 4 5 7 9 12 22
33 31 24 7 8 10 11 9 7 6 5 5 5 4 4 4 4 3 3 3 4 4 4 4 5 6 5 5 4 4 4 4 4 4 5 5 4 4 4 4 5 7 10
32 34 27 10 8 10 11 8 8 7 6 5 5 5 5 4 4 4 4 4 4 4 4 5 6 6 5 4 3 3 3 4 4 4 5 5 4 4 3 4 4 5 7
34 33 27 13 7 10 10 8 8 9 7 5 4 4 4 4 4 4 4 3 3 4 4 6 6 6 5 4 3 2 3 3 4 4 4 4 4 3 4 4 4 5 5
37 34 32 15 8 9 10 9 10 11 10 7 5 4 3 3 3 3 3 3 4 4 5 6 6 6 4 4 3 2 3 3 3 3 3 3 3 4 5 5 5 5 6
40 36 33 22 9 10 10 10 11 12 12 11 9 6 4 4 3 3 3 3 4 4 6 7 7 6 5 4 3 3 2 3 3 3 2 3 5 6 5 6 6 6 6
40 40 36 26 12 9 10 10 11 12 13 13 12 11 8 6 4 4 4 4 4 5 6 7 7 6 5 5 4 3 3 3 3 3 4 6 6 5 6 7 7 7 6
37 39 40 31 17 10 11 10 12 12 12 14 14 13 11 8 6 5 5 4 5 6 7 7 7 6 6 5 5 5 5 5 6 6 6 6 6 6 7 8 9 9 9
28 34 40 38 25 11 12 10 12 13 14 14 14 14 12 9 7 6 5 5 6 6 7 7 7 7 6 6 5 5 6 6 6 5 5 6 6 7 8 9 9 9 9
14 23 32 43 36 18 11 11 12 12 13 12 10 11 11 8 7 6 5 5 6 6 7 7 8 7 7 6 6 6 5 5 6 6 6 6 6 7 7 8 8 8 8
6 20 26 39 43 31 13 12 11 12 12 13 10 7 6 6 5 5 5 6 7 7 7 8 8 8 7 7 7 7 7 7 7 6 6 6 7 7 7 8 8 8 9
5 7 28 62 44 43 22 14 12 12 13 13 11 8 5 5 6 6 6 7 7 7 7 8 8 8 8 8 8 8 7 7 7 7 7 7 7 8 8 9 9 9 10
6 7 40 68 72 57 38 16 14 12 13 13 11 9 6 6 7 6 7 7 7 7 7 7 8 8 8 8 8 8 8 8 8 8 8 8 8 9 9 9 10 10 11
5 8 30 56 78 88 67 29 16 15 12 15 12 10 8 7 7 7 8 8 7 7 7 8 8 9 8 8 8 8 9 9 9 9 9 9 10 10 10 10 10 11 11
6 11 22 40 70 85 85 62 21 19 15 14 14 11 9 8 8 8 9 8 8 7 7 7 8 8 8 9 8 9 9 9 9 10 10 9 10 10 10 11 11 11 11
7 9 18 31 64 82 84 90 54 22 19 14 16 12 10 9 9 9 9 9 8 8 8 7 7 8 9 9 9 9 9 9 10 10 10 10 10 10 9 12 12 11 11
8 9 17 24 49 83 92 96 91 55 31 20 15 15 12 10 10 10 9 9 9 8 8 7 7 8 8 9 9 9 9 8 9 9 9 9 9 10 10 13 11 11 10
8 10 12 23 30 57 84 99 100 97 60 32 17 16 13 11 12 11 10 9 10 9 9 8 8 8 8 8 9 8 8 8 8 8 8 9 9 8 10 11 11 11 9
9 10 10 18 33 32 54 94 99 96 89 37 20 16 14 13 13 12 11 10 10 10 10 9 8 8 8 8 8 9 8 8 9 8 8 8 8 9 9 10 10 10 10
9 13 15 22 28 33 43 65 96 100 96 41 21 15 16 14 14 14 13 12 10 10 10 10 10 9 8 9 8 9 8 8 8 8 8 8 8 8 9 9 10 11 9
9 17 35 51 46 44 34 38 76 100 94 68 29 18 15 15 14 15 15 14 12 11 10 11 10 10 9 8 8 9 9 8 9 9 9 8 9 9 10 10 11 11 10
13 11 44 54 58 63 52 40 38 54 95 74 57 26 16 16 14 15 16 17 16 14 12 11 11 10 10 10 10 10 10 10 9 9 9 8 8 8 10 10 11 12 11
13 11 29 52 65 86 95 92 79 52 79 94 57 35 18 16 16 14 15 17 18 17 16 14 12 12 12 12 11 12 12 11 12 11 10 9 9 9 9 10 12 13 12
14 15 17 32 46 81 95 100 62 74 78 92 61 35 20 17 16 16 15 16 18 18 18 17 16 14 14 13 14 13 14 14 15 14 13 12 12 12 11 11 12 14 15
15 18 20 24 54 80 83 88 89 44 76 96 65 39 24 18 16 17 17 16 18 18 19 19 19 18 17 16 16 16 15 16 16 16 16 16 16 14 14 13 12 14 14
18 19 22 51 76 81 94 96 95 76 78 93 99 54 32 22 19 18 18 18 18 19 20 20 20 20 20 19 19 18 18 18 18 18 18 18 17 16 15 15 14 15 15

GFSSE_700_rhum_270.txt.gz
RH
38 35 18 7 8 10 11 11 10 6 5 4 4 4 4 6 24 26 27 22 18 12 8 5 4 5 5 5 5 5 4 4 4 4 4 4 4 4 5 10 8 12 39
38 34 25 6 8 10 11 10 8 6 4 4 4 4 4 3 3 5 7 8 7 5 4 4 5 6 5 5 4 4 4 4 4 5 4 4 4 3 4 4 6 8 16
33 32 26 8 7 10 11 9 7 6 5 5 4 4 4 4 4 3 3 3 3 3 4 5 6 6 5 4 4 4 4 4 4 4 4 4 4 3 4 4 6 8 10
34 33 28 14 6 10 11 8 8 7 6 5 5 5 4 4 4 4 3 3 3 3 4 5 6 6 4 4 3 3 4 4 4 4 4 4 3 4 4 5 5 6 12
36 34 32 18 8 8 11 8 8 8 7 5 5 4 4 4 4 3 3 3 3 4 5 6 6 5 4 3 3 3 3 4 3 3 3 3 4 5 5 5 6 6 6
38 37 35 29 11 8 11 8 9 10 9 7 4 4 4 4 4 3 3 3 4 4 5 6 5 5 4 3 2 2 2 3 3 3 3 3 5 5 5 5 6 6 6
38 38 37 33 21 8 10 9 10 10 10 10 9 6 4 4 4 3 3 4 4 4 5 6 6 5 5 4 3 2 2 2 2 3 4 6 5 5 6 6 6 6 6
36 38 40 38 28 11 10 10 10 11 12 12 12 11 8 6 4 4 4 4 4 5 5 6 6 5 5 5 4 3 3 3 4 6 6 5 5 6 7 7 7 7 7
35 32 37 40 34 19 10 11 10 11 12 13 12 12 11 9 7 5 5 5 5 5 6 6 6 6 6 5 5 5 5 5 5 5 5 6 6 7 7 7 8 8 7
8 26 34 36 40 32 13 11 10 11 12 13 14 13 12 10 8 7 6 5 5 5 6 6 7 6 6 6 5 5 5 5 5 5 6 6 7 7 7 7 7 7 7
4 6 13 29 36 41 29 12 11 12 12 13 12 12 13 11 9 8 6 5 6 6 6 6 7 7 6 6 6 6 6 6 6 6 6 6 7 7 7 8 8 8 8
6 4 5 13 26 37 42 22 12 11 12 11 12 10 8 10 8 6 5 5 6 6 6 6 7 7 7 7 6 7 7 7 7 7 7 7 7 8 8 8 9 10 10
6 6 7 20 25 45 39 41 15 12 11 12 13 12 8 6 6 5 5 6 7 6 6 6 7 7 8 7 7 7 7 7 8 7 7 7 8 8 9 9 10 10 10
5 5 9 50 59 66 46 48 31 14 13 12 14 13 10 6 5 6 6 7 7 8 7 7 7 8 8 8 7 7 8 8 8 8 8 8 9 9 9 10 11 11 10
6 6 19 65 57 77 87 60 62 26 16 14 14 14 10 8 6 7 7 7 7 8 8 8 8 8 8 8 7 8 8 8 8 9 8 9 9 9 9 10 10 11 11
6 6 7 32 58 77 67 75 76 70 26 19 14 15 12 9 7 7 7 8 8 8 8 9 8 9 9 8 7 8 8 8 9 9 9 9 9 8 9 10 10 10 10
7 7 7 12 39 53 56 70 86 94 71 28 20 14 15 11 8 8 8 9 9 8 8 9 10 9 9 9 9 8 9 9 9 9 9 9 8 7 9 10 10 10 10
10 8 8 8 18 44 59 98 85 98 81 71 28 19 15 13 10 9 9 9 11 10 10 9 10 11 9 10 9 9 8 8 8 9 9 8 8 8 8 10 10 10 10
11 9 7 7 13 27 63 56 74 100 95 82 68 28 16 15 12 10 10 10 10 11 11 10 10 11 11 10 11 11 10 9 9 10 9 9 9 9 9 9 9 11 10
12 12 7 9 11 17 34 42 64 89 100 91 99 59 23 15 14 12 12 11 10 10 11 11 10 11 11 10 11 11 10 11 10 11 10 9 8 9 8 8 10 10 11
12 13 9 10 13 13 26 41 38 57 57 89 100 87 45 18 15 13 13 13 12 10 10 11 12 11 11 10 10 11 12 11 12 12 11 11 14 11 9 10 9 10 11
9 14 16 10 18 27 37 42 38 36 63 92 97 100 71 27 16 15 14 14 14 13 10 10 10 11 11 11 11 11 11 12 10 11 12 10 11 11 10 10 10 10 13
10 11 15 15 15 47 55 57 56 48 51 55 88 80 97 52 20 16 15 14 16 16 13 11 10 11 12 12 11 11 10 11 12 11 12 12 10 10 10 9 10 10 14
13 11 14 18 15 41 57 71 78 88 82 50 41 69 88 75 39 18 15 15 16 17 16 15 12 12 13 12 13 12 12 13 14 13 12 11 12 11 11 11 11 10 10
16 14 15 21 21 34 42 51 79 90 95 96 79 80 49 73 80 22 16 16 17 18 18 17 16 14 13 13 13 13 12 12 13 13 14 14 14 14 14 13 13 13 12
22 21 15 23 22 28 34 37 61 81 84 97 94 69 73 70 74 27 18 17 17 18 18 18 18 17 16 16 15 14 14 14 15 15 16 16 16 16 16 15 15 15 15